Location: Larkspur
(54.4391°N, 113.7691°W)
Time: 12:52:45
(UTC+00:00)

METEOR M2 - Pass Details

Date: 10 December 2023
Orbit: 819 x 826 km, 98.4° (Epoch: 02 March)

Event Time Altitude Azimuth Distance (km) Brightness Sun altitude
Rises 13:21:55 0° 17° (NNE) 3,374 ? -19.3°
Reaches altitude 10° 13:24:20 10° 21° (NNE) 2,435 ? -19.0°
Maximum altitude 13:29:40 60° 102° (ESE) 942 ? -18.2°
Drops below altitude 10° 13:34:57 10° 182° (S) 2,413 ? -17.5°
Sets 13:37:19 0° 186° (S) 3,341 ? -17.1°
